Torna al catalogo

GALILEO 26

2C2

AttivoNavigazioneMEO
NORAD 43565·PAYLOAD·🇪🇺 EU

Lanciato Jul 25, 2018 da Guiana Space Centre

Loading…

Prossimi Passaggi (prossime 24 ore)

TLE

AggiornatoSource: CelesTrak SupGP

Epoca: Sep 13, 2026, 23:59 UTC

1 43565C 18060B   26256.99979167  .00000000  00000+0  00000+0 0  2560
2 43565  57.1368 339.3861 0004784 242.5987 203.8805  1.70476326    11

Traccia GALILEO 26 in tempo reale con AllMySat

Download on the App Store